Time,TemperatureF,DewpointF,PressureIn,WindDirection,WindDirectionDegrees,WindSpeedMPH,WindSpeedGustMPH,Humidity,HourlyPrecipIn,Conditions,Clouds,dailyrainin,SoftwareType,DateUTC
2013-04-21 00:02:00,55.0,46.0,30.20,ENE,67,3.0,5.0,72,0.00,,,0.00,,2013-04-21 05:02:00,
2013-04-21 00:12:00,55.0,46.0,30.20,ENE,67,3.0,5.0,72,0.00,,,0.00,,2013-04-21 05:12:00,
2013-04-21 00:22:00,55.0,45.0,30.20,ENE,65,5.0,8.0,70,0.00,,,0.00,,2013-04-21 05:22:00,
2013-04-21 00:32:00,56.0,45.0,30.20,East,84,3.0,9.0,67,0.00,,,0.00,,2013-04-21 05:32:00,
2013-04-21 00:42:00,56.0,45.0,30.20,East,84,3.0,9.0,67,0.00,,,0.00,,2013-04-21 05:42:00,
2013-04-21 00:52:00,56.0,45.0,30.21,East,92,2.0,5.0,66,0.00,,,0.00,,2013-04-21 05:52:00,
2013-04-21 01:01:00,56.0,45.0,30.21,East,100,0.0,2.0,67,0.00,,,0.00,,2013-04-21 06:01:00,
2013-04-21 01:12:00,56.0,45.0,30.21,East,100,0.0,2.0,67,0.00,,,0.00,,2013-04-21 06:12:00,
2013-04-21 01:22:00,56.0,46.0,30.21,East,100,1.0,2.0,69,0.00,,,0.00,,2013-04-21 06:22:00,
2013-04-21 01:32:00,55.0,45.0,30.21,East,100,0.0,1.0,69,0.00,,,0.00,,2013-04-21 06:32:00,
2013-04-21 01:42:00,55.0,45.0,30.21,East,100,0.0,1.0,69,0.00,,,0.00,,2013-04-21 06:42:00,
2013-04-21 01:52:00,55.0,45.0,30.20,East,100,0.0,2.0,69,0.00,,,0.00,,2013-04-21 06:52:00,
2013-04-21 02:01:00,55.0,46.0,30.20,SE,132,0.0,3.0,71,0.00,,,0.00,,2013-04-21 07:01:00,
2013-04-21 02:12:00,54.0,46.0,30.20,SE,132,0.0,0.0,73,0.00,,,0.00,,2013-04-21 07:12:00,
2013-04-21 02:21:00,54.0,46.0,30.20,SE,132,0.0,0.0,73,0.00,,,0.00,,2013-04-21 07:21:00,
2013-04-21 02:31:00,54.0,46.0,30.20,SE,132,0.0,0.0,73,0.00,,,0.00,,2013-04-21 07:31:00,
2013-04-21 02:42:00,54.0,46.0,30.20,SE,132,0.0,0.0,73,0.00,,,0.00,,2013-04-21 07:42:00,
2013-04-21 02:52:00,53.0,46.0,30.20,SE,132,0.0,0.0,76,0.00,,,0.00,,2013-04-21 07:52:00,
2013-04-21 03:01:00,52.0,46.0,30.20,SE,128,0.0,1.0,81,0.00,,,0.00,,2013-04-21 08:01:00,
2013-04-21 03:12:00,52.0,46.0,30.20,SE,128,0.0,1.0,81,0.00,,,0.00,,2013-04-21 08:12:00,
2013-04-21 03:21:00,52.0,46.0,30.19,SE,128,0.0,1.0,81,0.00,,,0.00,,2013-04-21 08:21:00,
2013-04-21 03:32:00,51.0,47.0,30.19,ESE,117,0.0,1.0,85,0.00,,,0.00,,2013-04-21 08:32:00,
2013-04-21 03:41:00,51.0,47.0,30.19,ESE,117,0.0,1.0,85,0.00,,,0.00,,2013-04-21 08:41:00,
2013-04-21 03:52:00,51.0,46.0,30.18,ESE,117,0.0,1.0,83,0.00,,,0.00,,2013-04-21 08:52:00,
2013-04-21 04:01:00,51.0,46.0,30.18,ESE,117,0.0,0.0,83,0.00,,,0.00,,2013-04-21 09:01:00,
2013-04-21 04:12:00,51.0,46.0,30.18,ESE,117,0.0,0.0,83,0.00,,,0.00,,2013-04-21 09:12:00,
2013-04-21 04:21:00,51.0,45.0,30.18,ESE,117,0.0,0.0,80,0.00,,,0.00,,2013-04-21 09:21:00,
2013-04-21 04:32:00,51.0,45.0,30.18,ESE,117,0.0,1.0,81,0.00,,,0.00,,2013-04-21 09:32:00,
2013-04-21 04:43:00,51.0,45.0,30.18,ESE,117,0.0,1.0,81,0.00,,,0.00,,2013-04-21 09:43:00,
2013-04-21 04:53:00,50.0,45.0,30.18,ESE,114,0.0,1.0,83,0.00,,,0.00,,2013-04-21 09:53:00,
2013-04-21 05:02:00,50.0,45.0,30.18,ESE,114,0.0,1.0,83,0.00,,,0.00,,2013-04-21 10:02:00,
2013-04-21 05:12:00,50.0,45.0,30.18,ESE,114,0.0,1.0,83,0.00,,,0.00,,2013-04-21 10:12:00,
2013-04-21 05:22:00,50.0,44.0,30.18,ESE,114,0.0,0.0,80,0.00,,,0.00,,2013-04-21 10:22:00,
2013-04-21 05:32:00,50.0,45.0,30.19,East,87,0.0,3.0,82,0.00,,,0.00,,2013-04-21 10:32:00,
2013-04-21 05:42:00,50.0,45.0,30.19,East,87,0.0,3.0,82,0.00,,,0.00,,2013-04-21 10:42:00,
2013-04-21 05:52:00,51.0,46.0,30.19,East,87,0.0,0.0,83,0.00,,,0.00,,2013-04-21 10:52:00,
2013-04-21 06:02:00,50.0,45.0,30.19,East,87,0.0,2.0,84,0.00,,,0.00,,2013-04-21 11:02:00,
2013-04-21 06:12:00,50.0,45.0,30.19,East,87,0.0,2.0,84,0.00,,,0.00,,2013-04-21 11:12:00,
2013-04-21 06:22:00,49.0,45.0,30.20,East,87,0.0,1.0,87,0.00,,,0.00,,2013-04-21 11:22:00,
2013-04-21 06:34:00,49.0,45.0,30.21,East,86,0.0,2.0,86,0.00,,,0.00,,2013-04-21 11:34:00,
2013-04-21 06:42:00,49.0,45.0,30.21,East,86,0.0,2.0,86,0.00,,,0.00,,2013-04-21 11:42:00,
2013-04-21 06:52:00,49.0,45.0,30.21,East,84,1.0,3.0,85,0.00,,,0.00,,2013-04-21 11:52:00,
2013-04-21 07:02:00,49.0,44.0,30.21,East,84,0.0,3.0,83,0.00,,,0.00,,2013-04-21 12:02:00,
2013-04-21 07:12:00,49.0,44.0,30.21,East,84,0.0,3.0,83,0.00,,,0.00,,2013-04-21 12:12:00,
2013-04-21 07:22:00,50.0,45.0,30.22,East,79,1.0,4.0,83,0.00,,,0.00,,2013-04-21 12:22:00,
2013-04-21 07:32:00,51.0,46.0,30.23,East,79,1.0,2.0,83,0.00,,,0.00,,2013-04-21 12:32:00,
2013-04-21 07:42:00,51.0,46.0,30.23,East,79,1.0,2.0,83,0.00,,,0.00,,2013-04-21 12:42:00,
2013-04-21 07:52:00,51.0,46.0,30.24,ENE,58,2.0,4.0,82,0.00,,,0.00,,2013-04-21 12:52:00,
2013-04-21 08:01:00,52.0,46.0,30.24,ENE,69,1.0,4.0,81,0.00,,,0.00,,2013-04-21 13:01:00,
2013-04-21 08:12:00,52.0,46.0,30.24,ENE,69,1.0,4.0,81,0.00,,,0.00,,2013-04-21 13:12:00,
2013-04-21 08:21:00,53.0,46.0,30.24,East,98,1.0,5.0,76,0.00,,,0.00,,2013-04-21 13:21:00,
2013-04-21 08:32:00,55.0,47.0,30.25,ENE,78,1.0,5.0,74,0.00,,,0.00,,2013-04-21 13:32:00,
2013-04-21 08:42:00,55.0,47.0,30.25,ENE,78,1.0,5.0,74,0.00,,,0.00,,2013-04-21 13:42:00,
2013-04-21 08:52:00,56.0,46.0,30.24,East,91,1.0,3.0,70,0.00,,,0.00,,2013-04-21 13:52:00,
2013-04-21 09:02:00,57.0,46.0,30.24,East,92,2.0,7.0,66,0.00,,,0.00,,2013-04-21 14:02:00,
2013-04-21 09:11:00,57.0,46.0,30.24,East,92,2.0,7.0,66,0.00,,,0.00,,2013-04-21 14:11:00,
2013-04-21 09:21:00,58.0,46.0,30.25,East,92,1.0,9.0,64,0.00,,,0.00,,2013-04-21 14:21:00,
2013-04-21 09:32:00,60.0,46.0,30.25,ESE,118,3.0,8.0,60,0.00,,,0.00,,2013-04-21 14:32:00,
2013-04-21 09:42:00,60.0,46.0,30.25,ESE,118,3.0,8.0,60,0.00,,,0.00,,2013-04-21 14:42:00,
2013-04-21 09:52:00,61.0,46.0,30.25,SE,125,2.0,9.0,57,0.00,,,0.00,,2013-04-21 14:52:00,
2013-04-21 10:02:00,62.0,45.0,30.24,SSE,154,2.0,7.0,54,0.00,,,0.00,,2013-04-21 15:02:00,
2013-04-21 10:11:00,62.0,45.0,30.24,SSE,154,2.0,7.0,54,0.00,,,0.00,,2013-04-21 15:11:00,
2013-04-21 10:22:00,63.0,44.0,30.25,SE,129,5.0,9.0,49,0.00,,,0.00,,2013-04-21 15:22:00,
2013-04-21 10:33:00,64.0,42.0,30.25,East,92,5.0,10.0,44,0.00,,,0.00,,2013-04-21 15:33:00,
2013-04-21 10:43:00,64.0,42.0,30.25,East,92,5.0,10.0,44,0.00,,,0.00,,2013-04-21 15:43:00,
2013-04-21 10:53:00,64.0,43.0,30.24,East,99,4.0,12.0,46,0.00,,,0.00,,2013-04-21 15:53:00,
2013-04-21 11:03:00,65.0,43.0,30.24,East,94,5.0,13.0,45,0.00,,,0.00,,2013-04-21 16:03:00,
2013-04-21 11:12:00,65.0,43.0,30.24,East,94,5.0,13.0,45,0.00,,,0.00,,2013-04-21 16:12:00,
2013-04-21 11:22:00,65.0,41.0,30.24,East,88,5.0,11.0,41,0.00,,,0.00,,2013-04-21 16:22:00,
2013-04-21 11:33:00,66.0,43.0,30.24,NE,51,4.0,12.0,44,0.00,,,0.00,,2013-04-21 16:33:00,
2013-04-21 11:42:00,66.0,43.0,30.24,NE,51,4.0,12.0,44,0.00,,,0.00,,2013-04-21 16:42:00,
2013-04-21 11:53:00,66.0,40.0,30.23,ENE,62,9.0,18.0,39,0.00,,,0.00,,2013-04-21 16:53:00,
2013-04-21 12:02:00,66.0,40.0,30.23,East,80,6.0,15.0,38,0.00,,,0.00,,2013-04-21 17:02:00,
2013-04-21 12:12:00,66.0,40.0,30.23,East,80,6.0,15.0,38,0.00,,,0.00,,2013-04-21 17:12:00,
2013-04-21 12:23:00,67.0,41.0,30.23,NE,42,9.0,16.0,38,0.00,,,0.00,,2013-04-21 17:23:00,
2013-04-21 12:32:00,67.0,41.0,30.23,ENE,71,6.0,15.0,39,0.00,,,0.00,,2013-04-21 17:32:00,
2013-04-21 12:42:00,67.0,41.0,30.23,ENE,71,6.0,15.0,39,0.00,,,0.00,,2013-04-21 17:42:00,
2013-04-21 12:52:00,67.0,41.0,30.22,NE,42,6.0,12.0,38,0.00,,,0.00,,2013-04-21 17:52:00,
2013-04-21 13:02:00,67.0,43.0,30.21,ENE,67,4.0,13.0,41,0.00,,,0.00,,2013-04-21 18:02:00,
2013-04-21 13:11:00,67.0,43.0,30.21,ENE,67,4.0,13.0,41,0.00,,,0.00,,2013-04-21 18:11:00,
2013-04-21 13:22:00,68.0,42.0,30.20,NNE,32,8.0,15.0,39,0.00,,,0.00,,2013-04-21 18:22:00,
2013-04-21 13:32:00,67.0,41.0,30.20,East,84,6.0,15.0,39,0.00,,,0.00,,2013-04-21 18:32:00,
2013-04-21 13:42:00,67.0,41.0,30.20,East,84,6.0,15.0,39,0.00,,,0.00,,2013-04-21 18:42:00,
2013-04-21 13:52:00,68.0,41.0,30.20,NE,40,10.0,14.0,37,0.00,,,0.00,,2013-04-21 18:52:00,
2013-04-21 14:02:00,68.0,43.0,30.19,NE,53,6.0,14.0,40,0.00,,,0.00,,2013-04-21 19:02:00,
2013-04-21 14:12:00,68.0,43.0,30.19,NE,53,6.0,14.0,40,0.00,,,0.00,,2013-04-21 19:12:00,
2013-04-21 14:21:00,69.0,40.0,30.19,NNE,19,6.0,14.0,35,0.00,,,0.00,,2013-04-21 19:21:00,
2013-04-21 14:32:00,69.0,40.0,30.18,East,83,6.0,13.0,35,0.00,,,0.00,,2013-04-21 19:32:00,
2013-04-21 14:42:00,69.0,40.0,30.18,East,83,6.0,13.0,35,0.00,,,0.00,,2013-04-21 19:42:00,
2013-04-21 14:52:00,69.0,42.0,30.17,East,80,5.0,13.0,38,0.00,,,0.00,,2013-04-21 19:52:00,
2013-04-21 15:02:00,70.0,42.0,30.16,East,101,8.0,13.0,36,0.00,,,0.00,,2013-04-21 20:02:00,
2013-04-21 15:11:00,70.0,42.0,30.16,East,101,8.0,13.0,36,0.00,,,0.00,,2013-04-21 20:11:00,
2013-04-21 15:22:00,70.0,40.0,30.16,ENE,60,6.0,9.0,34,0.00,,,0.00,,2013-04-21 20:22:00,
2013-04-21 15:32:00,70.0,41.0,30.16,ENE,77,9.0,13.0,35,0.00,,,0.00,,2013-04-21 20:32:00,
2013-04-21 15:42:00,70.0,41.0,30.16,ENE,77,9.0,13.0,35,0.00,,,0.00,,2013-04-21 20:42:00,
2013-04-21 15:52:00,71.0,42.0,30.14,SSE,150,3.0,9.0,35,0.00,,,0.00,,2013-04-21 20:52:00,
2013-04-21 16:02:00,70.0,43.0,30.14,NNE,19,5.0,14.0,37,0.00,,,0.00,,2013-04-21 21:02:00,
2013-04-21 16:12:00,70.0,43.0,30.14,NNE,19,5.0,14.0,37,0.00,,,0.00,,2013-04-21 21:12:00,
2013-04-21 16:21:00,71.0,42.0,30.14,ENE,68,9.0,13.0,35,0.00,,,0.00,,2013-04-21 21:21:00,
2013-04-21 16:33:00,70.0,41.0,30.13,ENE,76,2.0,8.0,35,0.00,,,0.00,,2013-04-21 21:33:00,
2013-04-21 16:43:00,70.0,41.0,30.13,ENE,76,2.0,8.0,35,0.00,,,0.00,,2013-04-21 21:43:00,
2013-04-21 16:53:00,71.0,41.0,30.14,NE,39,6.0,14.0,34,0.00,,,0.00,,2013-04-21 21:53:00,
2013-04-21 17:02:00,71.0,41.0,30.13,ENE,73,6.0,12.0,34,0.00,,,0.00,,2013-04-21 22:02:00,
2013-04-21 17:12:00,71.0,41.0,30.13,ENE,73,6.0,12.0,34,0.00,,,0.00,,2013-04-21 22:12:00,
2013-04-21 17:22:00,71.0,42.0,30.13,NE,44,6.0,11.0,35,0.00,,,0.00,,2013-04-21 22:22:00,
2013-04-21 17:33:00,71.0,40.0,30.13,NE,51,4.0,9.0,33,0.00,,,0.00,,2013-04-21 22:33:00,
2013-04-21 17:43:00,71.0,40.0,30.13,NE,51,4.0,9.0,33,0.00,,,0.00,,2013-04-21 22:43:00,
2013-04-21 17:52:00,71.0,43.0,30.13,ENE,67,9.0,12.0,36,0.00,,,0.00,,2013-04-21 22:52:00,
2013-04-21 18:02:00,70.0,43.0,30.13,NE,47,5.0,8.0,37,0.00,,,0.00,,2013-04-21 23:02:00,
2013-04-21 18:12:00,70.0,43.0,30.13,NE,47,5.0,8.0,37,0.00,,,0.00,,2013-04-21 23:12:00,
2013-04-21 18:22:00,70.0,43.0,30.12,North,5,5.0,9.0,37,0.00,,,0.00,,2013-04-21 23:22:00,
2013-04-21 18:32:00,70.0,41.0,30.12,NNE,28,5.0,9.0,35,0.00,,,0.00,,2013-04-21 23:32:00,
2013-04-21 18:42:00,70.0,41.0,30.12,NNE,28,5.0,9.0,35,0.00,,,0.00,,2013-04-21 23:42:00,
2013-04-21 18:52:00,70.0,44.0,30.12,ENE,63,5.0,10.0,39,0.00,,,0.00,,2013-04-21 23:52:00,
2013-04-21 19:01:00,69.0,42.0,30.11,East,81,5.0,10.0,38,0.00,,,0.00,,2013-04-22 00:01:00,
2013-04-21 19:11:00,69.0,42.0,30.11,East,81,5.0,10.0,38,0.00,,,0.00,,2013-04-22 00:11:00,
2013-04-21 19:21:00,69.0,43.0,30.11,NE,49,4.0,7.0,39,0.00,,,0.00,,2013-04-22 00:21:00,
2013-04-21 19:32:00,69.0,44.0,30.11,ENE,63,3.0,5.0,41,0.00,,,0.00,,2013-04-22 00:32:00,
2013-04-21 19:42:00,69.0,44.0,30.11,ENE,63,3.0,5.0,41,0.00,,,0.00,,2013-04-22 00:42:00,
2013-04-21 19:52:00,68.0,45.0,30.11,ENE,58,2.0,4.0,43,0.00,,,0.00,,2013-04-22 00:52:00,
2013-04-21 20:01:00,66.0,47.0,30.12,ENE,58,1.0,3.0,50,0.00,,,0.00,,2013-04-22 01:01:00,
2013-04-21 20:12:00,66.0,47.0,30.12,ENE,58,1.0,3.0,50,0.00,,,0.00,,2013-04-22 01:12:00,
2013-04-21 20:21:00,65.0,46.0,30.12,ENE,58,1.0,3.0,51,0.00,,,0.00,,2013-04-22 01:21:00,
2013-04-21 20:32:00,64.0,47.0,30.12,ENE,58,1.0,3.0,53,0.00,,,0.00,,2013-04-22 01:32:00,
2013-04-21 20:41:00,64.0,47.0,30.12,ENE,58,1.0,3.0,53,0.00,,,0.00,,2013-04-22 01:41:00,
2013-04-21 20:52:00,63.0,47.0,30.12,ENE,58,1.0,3.0,56,0.00,,,0.00,,2013-04-22 01:52:00,
2013-04-21 21:02:00,62.0,48.0,30.12,ENE,58,1.0,2.0,60,0.00,,,0.00,,2013-04-22 02:02:00,
2013-04-21 21:11:00,62.0,48.0,30.12,ENE,58,1.0,2.0,60,0.00,,,0.00,,2013-04-22 02:11:00,
2013-04-21 21:21:00,61.0,50.0,30.13,ENE,58,0.0,2.0,67,0.00,,,0.00,,2013-04-22 02:21:00,
2013-04-21 21:32:00,61.0,49.0,30.13,ENE,58,0.0,1.0,64,0.00,,,0.00,,2013-04-22 02:32:00,
2013-04-21 21:42:00,61.0,49.0,30.13,ENE,58,0.0,1.0,64,0.00,,,0.00,,2013-04-22 02:42:00,
2013-04-21 21:52:00,60.0,48.0,30.14,ENE,58,0.0,2.0,65,0.00,,,0.00,,2013-04-22 02:52:00,
2013-04-21 22:02:00,59.0,50.0,30.14,ENE,58,0.0,0.0,73,0.00,,,0.00,,2013-04-22 03:02:00,
2013-04-21 22:11:00,59.0,50.0,30.14,ENE,58,0.0,0.0,73,0.00,,,0.00,,2013-04-22 03:11:00,
2013-04-21 22:22:00,58.0,50.0,30.15,ENE,58,0.0,0.0,75,0.00,,,0.00,,2013-04-22 03:22:00,
2013-04-21 22:33:00,57.0,50.0,30.15,NNE,19,1.0,2.0,76,0.00,,,0.00,,2013-04-22 03:33:00,
2013-04-21 22:43:00,57.0,50.0,30.15,NNE,19,1.0,2.0,76,0.00,,,0.00,,2013-04-22 03:43:00,
2013-04-21 22:52:00,58.0,50.0,30.15,NNE,15,1.0,3.0,74,0.00,,,0.00,,2013-04-22 03:52:00,
2013-04-21 23:03:00,58.0,49.0,30.14,North,5,2.0,3.0,71,0.00,,,0.00,,2013-04-22 04:03:00,
2013-04-21 23:12:00,58.0,49.0,30.14,North,5,2.0,3.0,71,0.00,,,0.00,,2013-04-22 04:12:00,
2013-04-21 23:23:00,57.0,48.0,30.14,North,5,0.0,1.0,73,0.00,,,0.00,,2013-04-22 04:23:00,
2013-04-21 23:32:00,57.0,48.0,30.14,North,5,1.0,3.0,71,0.00,,,0.00,,2013-04-22 04:32:00,
2013-04-21 23:43:00,57.0,48.0,30.14,North,5,1.0,3.0,71,0.00,,,0.00,,2013-04-22 04:43:00,
2013-04-21 23:53:00,57.0,48.0,30.14,North,5,0.0,2.0,72,0.00,,,0.00,,2013-04-22 04:53:00,